Location: Albany
(35.0170°S, 117.8920°E)
Time: 16:25:38
(UTC+08:00)

Transit 2A - Pass Details

Date: 27 January 2021
Orbit: 601 x 958 km, 66.7° (Epoch: 02 March)

Event Time Altitude Azimuth Distance (km) Brightness Sun altitude
Rises 16:17:13 0° 287° (WNW) 3,018 10.0 35.5°
Reaches altitude 10° 16:20:22 10° 264° (W) 2,178 9.7 34.9°
Maximum altitude 16:23:20 16° 227° (SW) 1,890 8.9 34.3°
Drops below altitude 10° 16:26:28 10° 190° (S) 2,330 8.7 33.6°
Sets 16:30:02 0° 168° (SSE) 3,350 9.2 32.9°
